TimeEDT,TemperatureF,Dew PointF,Humidity,Sea Level PressureIn,VisibilityMPH,Wind Direction,Wind SpeedMPH,Gust SpeedMPH,PrecipitationIn,Events,Conditions,WindDirDegrees,DateUTC
12:18 AM,73.4,73.4,100,30.04,10.0,Calm,Calm,-,N/A,,Overcast,0,2013-07-13 04:18:00
12:33 AM,71.6,71.6,100,30.04,10.0,NNE,1.2,-,N/A,,Overcast,20,2013-07-13 04:33:00
12:58 AM,72.1,72.1,100,30.06,10.0,Calm,Calm,-,N/A,,Scattered Clouds,0,2013-07-13 04:58:00
1:58 AM,72.3,72.3,100,30.05,10.0,Variable,1.2,-,N/A,,Clear,0,2013-07-13 05:58:00
2:58 AM,70.5,70.5,100,30.07,10.0,West,2.3,-,N/A,,Clear,280,2013-07-13 06:58:00
3:58 AM,70.2,70.2,100,30.08,10.0,Calm,Calm,-,N/A,,Scattered Clouds,0,2013-07-13 07:58:00
4:58 AM,70.3,70.3,100,30.08,10.0,Calm,Calm,-,N/A,,Partly Cloudy,0,2013-07-13 08:58:00
5:13 AM,69.8,69.8,100,30.06,7.0,Calm,Calm,-,N/A,,Partly Cloudy,0,2013-07-13 09:13:00
5:23 AM,69.8,69.8,100,30.06,10.0,NNW,2.3,-,N/A,,Mostly Cloudy,340,2013-07-13 09:23:00
5:28 AM,69.8,69.8,100,30.06,10.0,NNW,2.3,-,N/A,,Mostly Cloudy,340,2013-07-13 09:28:00
5:33 AM,69.8,69.8,100,30.06,10.0,Calm,Calm,-,N/A,,Scattered Clouds,0,2013-07-13 09:33:00
5:58 AM,70.0,70.0,100,30.09,10.0,NNE,1.2,-,N/A,,Clear,20,2013-07-13 09:58:00
6:58 AM,71.6,71.6,100,30.11,10.0,Calm,Calm,-,N/A,,Clear,0,2013-07-13 10:58:00
7:52 AM,77.0,75.2,94,30.10,10.0,ESE,3.5,-,N/A,Rain,Light Rain,110,2013-07-13 11:52:00
7:58 AM,77.4,75.4,94,30.13,10.0,SE,5.8,-,0.00,Rain,Light Rain,130,2013-07-13 11:58:00
8:15 AM,78.8,75.2,89,30.12,10.0,ESE,4.6,-,N/A,,Clear,120,2013-07-13 12:15:00
8:20 AM,78.8,75.2,89,30.12,10.0,ESE,4.6,-,N/A,Rain,Light Rain,120,2013-07-13 12:20:00
8:30 AM,78.8,75.2,89,30.13,10.0,SE,6.9,-,N/A,Rain,Light Rain,130,2013-07-13 12:30:00
8:33 AM,78.8,75.2,89,30.13,10.0,SE,8.1,-,N/A,,Mostly Cloudy,130,2013-07-13 12:33:00
8:58 AM,78.3,76.3,94,30.16,10.0,SSE,5.8,-,0.00,,Overcast,150,2013-07-13 12:58:00
9:18 AM,78.8,75.2,89,30.15,10.0,ESE,3.5,-,N/A,,Overcast,120,2013-07-13 13:18:00
9:21 AM,78.8,77.0,94,30.15,10.0,ESE,3.5,-,N/A,Rain,Light Rain,120,2013-07-13 13:21:00
9:39 AM,77.0,77.0,100,30.15,10.0,East,4.6,-,N/A,,Mostly Cloudy,100,2013-07-13 13:39:00
9:42 AM,77.0,77.0,100,30.15,10.0,East,5.8,-,N/A,Rain,Light Rain,100,2013-07-13 13:42:00
9:58 AM,76.6,76.6,100,30.17,5.0,East,5.8,-,0.02,Rain,Light Rain,100,2013-07-13 13:58:00
10:13 AM,77.0,77.0,100,30.15,10.0,East,8.1,-,N/A,Rain,Light Rain,90,2013-07-13 14:13:00
10:23 AM,77.0,77.0,100,30.16,10.0,ESE,4.6,-,N/A,Rain,Light Rain,110,2013-07-13 14:23:00
10:24 AM,77.0,77.0,100,30.16,10.0,East,4.6,-,N/A,,Overcast,100,2013-07-13 14:24:00
10:25 AM,77.0,77.0,100,30.16,10.0,ESE,4.6,-,N/A,Rain,Light Rain,110,2013-07-13 14:25:00
10:37 AM,78.8,78.8,100,30.16,10.0,East,5.8,-,N/A,,Mostly Cloudy,100,2013-07-13 14:37:00
10:42 AM,78.8,78.8,100,30.16,10.0,East,5.8,-,N/A,,Mostly Cloudy,90,2013-07-13 14:42:00
10:46 AM,78.8,78.8,100,30.16,10.0,ESE,4.6,-,N/A,Rain,Light Rain,110,2013-07-13 14:46:00
10:51 AM,80.6,78.8,94,30.16,10.0,SE,4.6,-,N/A,Rain,Light Rain,130,2013-07-13 14:51:00
10:58 AM,80.6,79.0,95,30.18,10.0,Variable,4.6,-,0.03,Rain,Light Rain,0,2013-07-13 14:58:00
11:00 AM,80.6,78.8,94,30.16,10.0,SSE,5.8,-,N/A,,Mostly Cloudy,160,2013-07-13 15:00:00
11:15 AM,82.4,78.8,89,30.16,10.0,Variable,4.6,-,N/A,,Mostly Cloudy,0,2013-07-13 15:15:00
11:20 AM,82.4,78.8,89,30.17,10.0,Variable,4.6,-,N/A,,Mostly Cloudy,0,2013-07-13 15:20:00
11:58 AM,83.7,75.0,75,30.20,10.0,SSE,6.9,-,0.00,,Mostly Cloudy,160,2013-07-13 15:58:00
12:17 PM,84.2,75.2,74,30.17,10.0,SSE,10.4,-,N/A,Thunderstorm,Thunderstorm,150,2013-07-13 16:17:00
12:32 PM,84.2,75.2,74,30.18,10.0,South,10.4,-,N/A,,Scattered Clouds,170,2013-07-13 16:32:00
12:35 PM,82.4,75.2,79,30.19,8.0,South,13.8,19.6,N/A,Rain,Light Rain,170,2013-07-13 16:35:00
12:40 PM,80.6,77.0,89,30.19,3.0,SSW,11.5,19.6,N/A,Rain-Thunderstorm,Light Thunderstorms and Rain,210,2013-07-13 16:40:00
12:41 PM,80.6,77.0,89,30.19,3.0,SSW,9.2,19.6,N/A,Rain,Heavy Rain,210,2013-07-13 16:41:00
12:46 PM,78.8,77.0,94,30.19,4.0,SW,6.9,-,N/A,Rain-Thunderstorm,Light Thunderstorms and Rain,220,2013-07-13 16:46:00
12:51 PM,78.8,77.0,94,30.19,10.0,South,5.8,-,N/A,Thunderstorm,Thunderstorm,190,2013-07-13 16:51:00
12:58 PM,79.2,78.6,98,30.20,10.0,SSW,3.5,-,0.05,Thunderstorm,Thunderstorm,210,2013-07-13 16:58:00
1:01 PM,80.6,78.8,94,30.18,10.0,Variable,2.3,-,N/A,Thunderstorm,Scattered Clouds,0,2013-07-13 17:01:00
1:58 PM,85.3,75.0,71,30.19,10.0,South,9.2,-,N/A,,Scattered Clouds,170,2013-07-13 17:58:00
2:58 PM,85.8,77.5,76,30.19,10.0,Variable,5.8,-,N/A,,Clear,0,2013-07-13 18:58:00
3:58 PM,88.7,73.8,61,30.18,10.0,South,12.7,19.6,N/A,,Clear,170,2013-07-13 19:58:00
4:58 PM,88.2,73.4,61,30.19,10.0,SSE,15.0,20.7,N/A,,Partly Cloudy,160,2013-07-13 20:58:00
5:58 PM,87.8,73.9,63,30.19,10.0,SSE,9.2,-,N/A,,Clear,160,2013-07-13 21:58:00
6:58 PM,86.2,73.6,66,30.20,10.0,SSE,11.5,-,N/A,,Partly Cloudy,160,2013-07-13 22:58:00
7:58 PM,83.3,75.4,77,30.22,10.0,SE,8.1,-,N/A,,Clear,130,2013-07-13 23:58:00
8:59 PM,80.8,75.0,83,30.24,10.0,SE,8.1,-,N/A,,Clear,130,2013-07-14 00:59:00
9:07 PM,80.6,75.2,84,30.22,10.0,SE,6.9,-,N/A,Rain,Light Rain,140,2013-07-14 01:07:00
9:21 PM,80.6,75.2,84,30.23,10.0,SE,8.1,-,N/A,,Clear,140,2013-07-14 01:21:00